When you browse on this site, cookies collect data to enhance your experience and personalize the content and advertising you see.
Visit our Privacy Policy to learn more. By continuing to use the site, you agree to this use of cookies and data.
  • In France
  • List of Countries
  • For 7 days
  • Water Temperature
  • Weather Map
  • Weather Widgets
  • user-avatar
    Login

    Hourly Weather Salta

    Today, 20 February, Thursday

    Time Temperature Precipitation Wind Pressure Humidity
    00:00 +19°C° 0 mm 0 mps 651 mmHg 88%
    01:00 +19°C° 0 mm 0 mps 651 mmHg 89%
    02:00 +19°C° 0 mm 0 mps 651 mmHg 89%
    03:00 +18°C° 0 mm 0 mps 651 mmHg 90%
    04:00 +20°C° 0 mm 1 mps 651 mmHg 91%
    05:00 +19°C° 0 mm 1 mps 651 mmHg 92%
    06:00 +20°C° 0 mm 1 mps 652 mmHg 88%
    07:00 +22°C° 0 mm 1 mps 653 mmHg 84%
    08:00 +23°C° 0 mm 1 mps 654 mmHg 81%
    09:00 +24°C° 0.2 mm 1 mps 654 mmHg 76%
    10:00 +26°C° 0.2 mm 1 mps 655 mmHg 72%
    11:00 +27°C° 0.2 mm 1 mps 655 mmHg 68%
    12:00 +27°C° 1 mm 2 mps 655 mmHg 71%
    13:00 +27°C° 1 mm 2 mps 654 mmHg 73%
    14:00 +27°C° 1 mm 2 mps 653 mmHg 76%
    15:00 +26°C° 1.1 mm 2 mps 653 mmHg 79%
    16:00 +25°C° 1.1 mm 2 mps 652 mmHg 82%
    17:00 +24°C° 1.1 mm 3 mps 652 mmHg 85%
    18:00 +23°C° 0.5 mm 2 mps 652 mmHg 88%
    19:00 +21°C° 0.5 mm 2 mps 653 mmHg 91%
    20:00 +20°C° 0.5 mm 2 mps 653 mmHg 94%
    21:00 +19°C° 0.4 mm 2 mps 653 mmHg 93%
    22:00 +19°C° 0.4 mm 2 mps 654 mmHg 93%
    23:00 +18°C° 0.4 mm 2 mps 654 mmHg 93%

    Tomorrow, 21 February, Friday

    Time Temperature Precipitation Wind Pressure Humidity
    00:00 +18°C° 0.3 mm 2 mps 654 mmHg 91%
    01:00 +17°C° 0.3 mm 2 mps 654 mmHg 89%
    02:00 +17°C° 0.3 mm 2 mps 654 mmHg 87%
    09:00 +19°C° 0 mm 1 mps 656 mmHg 77%
    10:00 +20°C° 0 mm 1 mps 656 mmHg 75%
    11:00 +19°C° 0 mm 2 mps 656 mmHg 73%
    12:00 +19°C° 0 mm 2 mps 656 mmHg 73%
    13:00 +19°C° 0 mm 2 mps 655 mmHg 73%
    14:00 +20°C° 0 mm 1 mps 655 mmHg 73%
    15:00 +20°C° 0 mm 1 mps 654 mmHg 75%
    16:00 +20°C° 0 mm 1 mps 653 mmHg 77%
    17:00 +19°C° 0 mm 1 mps 652 mmHg 79%
    18:00 +19°C° 0 mm 1 mps 653 mmHg 80%
    19:00 +18°C° 0 mm 1 mps 653 mmHg 82%
    20:00 +18°C° 0 mm 1 mps 654 mmHg 83%
    21:00 +18°C° 0 mm 1 mps 654 mmHg 83%
    22:00 +18°C° 0 mm 1 mps 655 mmHg 83%
    23:00 +18°C° 0 mm 1 mps 655 mmHg 83%

    Day after tomorrow, 22 February, Saturday

    Time Temperature Precipitation Wind Pressure Humidity
    00:00 +18°C° 0 mm 1 mps 655 mmHg 81%
    01:00 +16°C° 0 mm 0 mps 655 mmHg 79%
    02:00 +16°C° 0 mm 0 mps 654 mmHg 78%
    03:00 +15°C° 0 mm 0 mps 654 mmHg 76%
    04:00 +15°C° 0 mm 0 mps 654 mmHg 75%
    05:00 +15°C° 0 mm 0 mps 654 mmHg 73%
    06:00 +15°C° 0 mm 0 mps 654 mmHg 72%
    07:00 +16°C° 0 mm 0 mps 654 mmHg 71%
    08:00 +16°C° 0 mm 0 mps 654 mmHg 70%
    09:00 +18°C° 0 mm 1 mps 654 mmHg 68%
    10:00 +19°C° 0 mm 1 mps 654 mmHg 66%
    11:00 +19°C° 0 mm 1 mps 654 mmHg 64%
    12:00 +20°C° 0 mm 1 mps 654 mmHg 62%
    13:00 +21°C° 0 mm 1 mps 653 mmHg 60%
    14:00 +22°C° 0 mm 1 mps 653 mmHg 59%
    15:00 +21°C° 0 mm 1 mps 652 mmHg 64%
    16:00 +20°C° 0 mm 1 mps 651 mmHg 69%
    17:00 +20°C° 0 mm 1 mps 650 mmHg 74%
    18:00 +19°C° 0 mm 1 mps 651 mmHg 74%
    19:00 +19°C° 0 mm 1 mps 651 mmHg 74%
    20:00 +18°C° 0 mm 1 mps 651 mmHg 74%
    21:00 +18°C° 0 mm 1 mps 652 mmHg 74%
    22:00 +18°C° 0 mm 1 mps 652 mmHg 73%
    23:00 +18°C° 0 mm 1 mps 652 mmHg 73%

    23 February, Sunday

    Time Temperature Precipitation Wind Pressure Humidity
    00:00 +16°C° 0 mm 1 mps 652 mmHg 75%
    01:00 +14°C° 0 mm 0 mps 651 mmHg 77%
    02:00 +14°C° 0 mm 0 mps 651 mmHg 80%
    03:00 +13°C° 0 mm 0 mps 650 mmHg 81%
    04:00 +14°C° 0 mm 1 mps 650 mmHg 83%
    05:00 +14°C° 0 mm 1 mps 650 mmHg 84%
    06:00 +15°C° 0 mm 1 mps 650 mmHg 80%
    07:00 +15°C° 0 mm 0 mps 651 mmHg 76%
    08:00 +17°C° 0 mm 0 mps 652 mmHg 72%
    09:00 +20°C° 0 mm 1 mps 652 mmHg 68%
    10:00 +22°C° 0 mm 1 mps 652 mmHg 63%
    11:00 +24°C° 0 mm 2 mps 652 mmHg 59%
    12:00 +24°C° 0 mm 2 mps 651 mmHg 59%
    13:00 +24°C° 0 mm 2 mps 651 mmHg 59%
    14:00 +24°C° 0 mm 2 mps 650 mmHg 59%
    15:00 +24°C° 0 mm 2 mps 649 mmHg 60%
    16:00 +24°C° 0 mm 2 mps 649 mmHg 61%
    17:00 +24°C° 0 mm 2 mps 648 mmHg 63%
    18:00 +22°C° 0 mm 1 mps 648 mmHg 68%
    19:00 +20°C° 0 mm 1 mps 648 mmHg 73%
    20:00 +19°C° 0 mm 1 mps 648 mmHg 79%
    21:00 +16°C° 0 mm 0 mps 648 mmHg 79%
    22:00 +16°C° 0 mm 0 mps 649 mmHg 80%
    23:00 +15°C° 0 mm 0 mps 649 mmHg 80%

    24 February, Monday

    Time Temperature Precipitation Wind Pressure Humidity
    00:00 +15°C° 0 mm 0 mps 649 mmHg 81%
    01:00 +15°C° 0 mm 0 mps 648 mmHg 82%
    02:00 +14°C° 0 mm 0 mps 648 mmHg 82%
    03:00 +14°C° 0 mm 0 mps 648 mmHg 83%
    04:00 +14°C° 0 mm 0 mps 648 mmHg 83%
    05:00 +14°C° 0 mm 0 mps 648 mmHg 84%
    06:00 +16°C° 0 mm 0 mps 649 mmHg 79%
    07:00 +17°C° 0 mm 0 mps 649 mmHg 74%
    08:00 +19°C° 0 mm 0 mps 650 mmHg 69%
    09:00 +23°C° 0 mm 1 mps 651 mmHg 63%
    10:00 +25°C° 0 mm 1 mps 651 mmHg 58%
    11:00 +27°C° 0 mm 2 mps 651 mmHg 53%
    12:00 +27°C° 0 mm 2 mps 651 mmHg 52%
    13:00 +28°C° 0 mm 2 mps 650 mmHg 50%
    14:00 +29°C° 0 mm 2 mps 649 mmHg 48%
    15:00 +28°C° 0 mm 2 mps 649 mmHg 50%
    16:00 +28°C° 0 mm 2 mps 648 mmHg 52%
    17:00 +28°C° 0 mm 2 mps 647 mmHg 53%
    18:00 +25°C° 0 mm 1 mps 647 mmHg 61%
    19:00 +23°C° 0 mm 1 mps 647 mmHg 68%
    20:00 +21°C° 0 mm 1 mps 647 mmHg 76%
    21:00 +21°C° 0 mm 1 mps 647 mmHg 76%
    22:00 +20°C° 0 mm 1 mps 648 mmHg 77%
    23:00 +18°C° 0 mm 0 mps 648 mmHg 77%

    25 February, Tuesday

    Time Temperature Precipitation Wind Pressure Humidity
    00:00 +20°C° 0 mm 1 mps 648 mmHg 78%
    01:00 +19°C° 0 mm 1 mps 648 mmHg 78%
    02:00 +19°C° 0 mm 1 mps 647 mmHg 79%
    03:00 +19°C° 0 mm 1 mps 647 mmHg 79%
    04:00 +19°C° 0 mm 1 mps 647 mmHg 79%
    05:00 +18°C° 0 mm 1 mps 647 mmHg 80%
    06:00 +20°C° 0 mm 1 mps 647 mmHg 76%
    07:00 +21°C° 0 mm 1 mps 648 mmHg 72%
    08:00 +21°C° 0 mm 0 mps 649 mmHg 67%
    09:00 +25°C° 0 mm 1 mps 649 mmHg 62%
    10:00 +27°C° 0 mm 1 mps 649 mmHg 57%
    11:00 +28°C° 0 mm 2 mps 649 mmHg 51%
    12:00 +29°C° 0 mm 2 mps 649 mmHg 50%
    13:00 +30°C° 0 mm 2 mps 648 mmHg 49%
    14:00 +30°C° 0 mm 2 mps 648 mmHg 48%
    15:00 +30°C° 0 mm 2 mps 647 mmHg 49%
    16:00 +30°C° 0 mm 2 mps 647 mmHg 51%
    17:00 +30°C° 0 mm 1 mps 646 mmHg 52%
    18:00 +27°C° 0 mm 1 mps 646 mmHg 59%
    19:00 +25°C° 0 mm 1 mps 646 mmHg 66%
    20:00 +23°C° 0 mm 1 mps 646 mmHg 73%
    21:00 +23°C° 0 mm 1 mps 647 mmHg 73%
    22:00 +23°C° 0 mm 1 mps 647 mmHg 73%
    23:00 +22°C° 0 mm 1 mps 648 mmHg 73%
    Show more